Regional Weather Roundup
Issued by NWS

Home | Current Version | Previous Version | Graphics & Text | Print | Product List | Glossary On
Versions: 1 2 3 4 5 6 7 8 9 10 11 12 13 14 15 16 17 18 19 20 21 22 23 24 25 26 27 28 29 30 31 32 33 34 35 36 37 38 39 40 41 42 43 44 45 46 47 48 49 50
000
ASUS43 KDTX 282001
RWRMI
MICHIGAN HOURLY REGIONAL WEATHER ROUNDUP
NATIONAL WEATHER SERVICE DETROIT/PONTIAC MI
400 PM EDT THU MAY 28 2015

NOTE: "FAIR" INDICATES FEW OR NO CLOUDS BELOW 12,000 FEET WITH NO
SIGNIFICANT WEATHER AND/OR OBSTRUCTION TO VISIBILITY.

MIZ047>049-052>055-059>063-066>070-074>076-081>083-282100-
SOUTHEAST LOWER MICHIGAN

CITY           SKY/WX    TMP DP  RH WIND       PRES   REMARKS
ADRIAN         SUNNY     77  58  51 S8        30.22F
ALMA           PTSUNNY   78  59  51 S6        30.19S
ANN ARBOR      SUNNY     75  57  53 VRB6      30.23F
BAD AXE        MOSUNNY   81  54  39 S7        30.19F
CARO           MOSUNNY   79  58  48 CALM      30.18F
DETROIT CITY   SUNNY     76  57  51 S8        30.24F
DETROIT        MOSUNNY   76  53  44 S8        30.24F
FLINT          PTSUNNY   80  56  43 VRB6      30.20F
GROSSE ILE     SUNNY     68  61  77 S9        30.24F
HILLSDALE      SUNNY     79  55  43 SE12G17   30.21F
HOWELL         MOSUNNY   77  53  43 S10       30.21F

CITY           SKY/WX    TMP DP  RH WIND       PRES   REMARKS
JACKSON        SUNNY     78  57  48 SE7       30.21F
LAMBERTVILLE   SUNNY     75  52  43 E6        30.23F
LANSING        MOSUNNY   79  57  46 SW7G17    30.21F
LAPEER         PTSUNNY   80  54  40 S10       30.21F
MASON          SUNNY     76  56  50 S5        30.21F
MONROE         SUNNY     73  54  49 SE8       30.23F
MT. CLEMENS    MOSUNNY   74  57  54 SE15      30.22F
PONTIAC        PTSUNNY   77  58  51 SE13      30.21F
PORT HOPE        N/A     64  58  80 E18       30.18F
PORT HURON     SUNNY     75  57  53 SW7       30.23F
TRI CITIES     PTSUNNY   82  60  47 S10       30.18F
MIDLAND        CLOUDY    83  57  42 S7        30.16F
TROY           SUNNY     79  57  47 S12       30.25S
SAGINAW HB     MOSUNNY   79  55  44 S6        30.18S
$$
MIZ043>046-050>051-056>058-064>065-071>073-077>080-282100-
SOUTHWEST LOWER MICHIGAN

CITY           SKY/WX    TMP DP  RH WIND       PRES   REMARKS
BATTLE CREEK   MOSUNNY   80  53  39 SE12      30.20F
BENTON HARBOR  MOSUNNY   80  54  40 VRB7      30.17F
BIG RAPIDS     PTSUNNY   78  55  44 SW10      30.17F
COLDWATER      MOSUNNY   77  54  45 SE12      30.20F
FREMONT        FAIR      78  51  38 S8        30.18F
HOLLAND        MOSUNNY   80  60  50 CALM      30.18F
GRAND RAPIDS   MOSUNNY   79  58  48 SE8       30.18F
IONIA          FAIR      80  56  42 SE8       30.18F
KALAMAZOO      MOSUNNY   80  55  42 VRB5      30.19F
LUDINGTON      SUNNY     77  60  55 SW14      30.17F
MARSHALL       MOSUNNY   80  56  43 E8        30.19F
MOUNT PLEASANT MOSUNNY   82  54  38 S7        30.17S
MUSKEGON       MOSUNNY   78  56  46 SW8       30.19F
SOUTH HAVEN    MOSUNNY   80  54  39 S6        30.18S
$$
MIZ016>042-282100-
NORTHERN LOWER MICHIGAN

CITY           SKY/WX    TMP DP  RH WIND       PRES   REMARKS
ALPENA         SUNNY     73  57  57 E10       30.18F
BEAVER ISLAND  SUNNY     69  54  58 W5        30.17S
BELLAIRE       SUNNY     82  51  33 CALM      30.14F
CADILLAC       MOSUNNY   80  53  38 SE7       30.16F
CHARLEVOIX     SUNNY     65  55  70 N5        30.19S
FRANKFORT      SUNNY     72  54  53 NW5       30.16F
GAYLORD        MOSUNNY   79  48  33 CALM      30.16F
GRAYLING       SUNNY     82  50  32 W3        30.16F
HARBOR SPRINGS SUNNY     60  53  78 S5        30.16S
HOUGHTON LAKE  SUNNY     82  51  34 SW5       30.17F
MANISTEE       SUNNY     79  57  47 W12       30.16F
OSCODA         SUNNY     75  58  54 SE13      30.17F
PELLSTON       MOSUNNY   77  60  55 N10       30.15F
ROGERS CITY    SUNNY     59  54  82 NE7       30.19F
TRAVERSE CITY  MOSUNNY   71  55  56 N7        30.13F
$$
MIZ007>008-015-282100-
EASTERN UPPER MICHIGAN

CITY           SKY/WX    TMP DP  RH WIND       PRES   REMARKS
KINROSS        MOSUNNY   73  57  56 SE10      30.17F
MACKINAC ISLAN SUNNY     60  52  76 E9        30.17F
NEWBERRY       SUNNY     73  59  62 S9        30.15F
S. S. MARIE    SUNNY     73  57  57 E9        30.16F
$$
MIZ004>006-011>014-085-282100-
CENTRAL UPPER MICHIGAN

CITY           SKY/WX    TMP DP  RH WIND       PRES   REMARKS
MANISTIQUE     SUNNY     58  50  75 S7        30.16F
ESCANABA       SUNNY     63  52  67 SE9       30.13F
MENOMINEE      SUNNY     70  57  64 SE7       30.11F
SAWYER-GWINN   SUNNY     79  57  47 S12       30.10F
$$
MIZ001>003-009>011-084-282100-
WESTERN UPPER MICHIGAN

CITY           SKY/WX    TMP DP  RH WIND       PRES   REMARKS
IRON MOUNTAIN  RAIN      73  64  73 S12       30.09S
HOUGHTON       MOSUNNY   54  47  77 E13       30.07F
COPPER HARBOR    N/A     58  48  69 VRB5      30.07F
IRONWOOD       MOSUNNY   66  55  68 NW5       30.00S
$$

ABBREVIATIONS USED IN REMARKS
   TC - TEMPERATURE IN CELSIUS
  WCI - WIND CHILL INDEX
   HX - HEAT INDEX
  VSB - VISIBILITY



USA.gov is the U.S. government's official web portal to all federal, state and local government web resources and services.